"read_dt","SO2 (ppb)","flags","PMT voltage (V)","lamp voltage (V)","lamp intensity (Hz)","internal temp (C)","react chamber temp (C)","sample flow (l/min)","pres (mmHg)","SO2 bkg (ppb)","SO2 coefficient"
2016-01-17 00:00:00,1948E-3,5C000400,-0724,0834,12190,028.0,045.4,0.256,775.5,01.15,0.508
2016-01-17 00:01:00,1800E-3,5C000400,-0724,0834,12376,028.0,045.4,0.256,775.4,01.15,0.508
2016-01-17 00:02:00,1844E-3,5C000400,-0724,0834,12160,028.0,045.4,0.256,775.5,01.15,0.508
2016-01-17 00:03:00,1927E-3,5C000400,-0724,0835,12078,028.0,045.4,0.256,775.4,01.15,0.508
2016-01-17 00:04:00,1729E-3,5C000400,-0724,0834,12233,028.0,045.4,0.256,775.5,01.15,0.508
2016-01-17 00:05:00,1591E-3,5C000400,-0724,0834,12219,028.0,045.4,0.256,775.5,01.15,0.508
2016-01-17 00:06:00,1869E-3,5C000400,-0724,0835,12194,028.0,045.4,0.256,775.5,01.15,0.508
2016-01-17 00:07:00,1826E-3,5C000400,-0724,0835,12221,028.0,045.4,0.256,775.5,01.15,0.508
2016-01-17 00:08:00,1799E-3,5C000400,-0724,0835,12166,028.0,045.4,0.256,775.5,01.15,0.508
2016-01-17 00:09:00,1735E-3,5C000400,-0724,0834,12335,028.0,045.4,0.256,775.5,01.15,0.508
2016-01-17 00:10:00,1738E-3,5C000400,-0724,0834,12296,028.0,045.4,0.256,775.5,01.15,0.508
2016-01-17 00:11:00,1850E-3,5C000400,-0724,0835,12171,028.0,045.4,0.256,775.5,01.15,0.508
2016-01-17 00:12:00,1880E-3,5C000400,-0724,0834,12077,028.0,045.4,0.256,775.5,01.15,0.508
2016-01-17 00:13:00,1778E-3,5C000400,-0724,0835,12074,028.0,045.4,0.256,775.5,01.15,0.508
2016-01-17 00:14:00,1951E-3,5C000400,-0724,0834,12130,028.0,045.4,0.256,775.5,01.15,0.508
2016-01-17 00:15:00,1754E-3,5C000400,-0724,0834,12150,028.0,045.4,0.256,775.5,01.15,0.508
2016-01-17 00:16:00,1795E-3,5C000400,-0724,0834,12055,028.0,045.4,0.256,775.5,01.15,0.508
2016-01-17 00:17:00,1937E-3,5C000400,-0724,0834,12191,028.0,045.4,0.256,775.5,01.15,0.508
2016-01-17 00:18:00,1811E-3,5C000400,-0724,0833,10995,028.0,045.4,0.256,775.5,01.15,0.508
2016-01-17 00:19:00,1856E-3,5C000400,-0724,0835,12342,028.0,045.4,0.256,775.5,01.15,0.508
2016-01-17 00:20:00,1716E-3,5C000400,-0724,0834,12073,028.0,045.4,0.256,775.5,01.15,0.508
2016-01-17 00:21:00,1841E-3,5C000400,-0724,0834,12263,028.0,045.4,0.256,775.5,01.15,0.508
2016-01-17 00:22:00,1787E-3,5C000400,-0724,0834,12255,028.0,045.4,0.256,775.5,01.15,0.508
2016-01-17 00:23:00,1864E-3,5C000400,-0724,0833,12125,028.0,045.4,0.256,775.5,01.15,0.508
2016-01-17 00:24:00,1842E-3,5C000400,-0724,0834,12161,027.9,045.4,0.256,775.5,01.15,0.508
2016-01-17 00:25:00,1834E-3,5C000400,-0724,0834,12053,028.0,045.4,0.256,775.5,01.15,0.508
2016-01-17 00:26:00,1773E-3,5C000400,-0724,0834,12044,028.0,045.4,0.256,775.5,01.15,0.508
2016-01-17 00:27:00,1718E-3,5C000400,-0724,0833,12239,028.0,045.4,0.256,775.5,01.15,0.508
2016-01-17 00:28:00,1853E-3,5C000400,-0724,0834,12262,028.0,045.4,0.256,775.5,01.15,0.508
2016-01-17 00:29:00,1666E-3,5C000400,-0724,0834,12078,028.0,045.4,0.256,775.5,01.15,0.508
2016-01-17 00:30:00,1801E-3,5C000400,-0724,0834,12224,028.0,045.4,0.256,775.5,01.15,0.508
2016-01-17 00:31:00,1874E-3,5C000400,-0724,0834,12190,027.9,045.4,0.256,775.5,01.15,0.508
2016-01-17 00:32:00,1893E-3,5C000400,-0724,0834,11972,028.0,045.4,0.256,775.5,01.15,0.508
2016-01-17 00:33:00,1853E-3,5C000400,-0724,0834,12156,028.0,045.4,0.256,775.5,01.15,0.508
2016-01-17 00:34:00,1659E-3,5C000400,-0724,0835,12246,028.0,045.4,0.256,775.5,01.15,0.508
2016-01-17 00:35:00,1747E-3,5C000400,-0724,0834,12317,028.0,045.4,0.256,775.6,01.15,0.508
2016-01-17 00:36:00,1851E-3,5C000400,-0724,0833,12228,027.9,045.4,0.256,775.5,01.15,0.508
2016-01-17 00:37:00,1821E-3,5C000400,-0724,0834,12310,028.0,045.4,0.256,775.5,01.15,0.508
2016-01-17 00:38:00,1781E-3,5C000400,-0724,0833,12244,028.0,045.4,0.256,775.5,01.15,0.508
2016-01-17 00:39:00,1726E-3,5C000400,-0724,0833,12082,028.0,045.4,0.256,775.6,01.15,0.508
2016-01-17 00:40:00,1865E-3,5C000400,-0724,0834,12057,028.0,045.4,0.256,775.5,01.15,0.508
2016-01-17 00:41:00,1707E-3,5C000400,-0724,0833,12171,028.0,045.4,0.256,775.5,01.15,0.508
2016-01-17 00:42:00,1746E-3,5C000400,-0724,0834,12226,028.0,045.4,0.256,775.5,01.15,0.508
2016-01-17 00:43:00,1725E-3,5C000400,-0724,0834,12217,028.0,045.4,0.256,775.5,01.15,0.508
2016-01-17 00:44:00,1741E-3,5C000400,-0724,0835,12269,028.0,045.4,0.256,775.5,01.15,0.508
2016-01-17 00:45:00,1786E-3,5C000400,-0724,0834,12148,028.0,045.4,0.256,775.5,01.15,0.508
2016-01-17 00:46:00,1745E-3,5C000400,-0724,0834,12160,027.9,045.4,0.256,775.5,01.15,0.508
2016-01-17 00:47:00,1790E-3,5C000400,-0724,0834,12143,027.9,045.4,0.256,775.5,01.15,0.508
2016-01-17 00:48:00,1776E-3,5C000400,-0724,0834,12023,028.0,045.4,0.256,775.5,01.15,0.508
2016-01-17 00:49:00,1788E-3,5C000400,-0724,0834,12181,027.9,045.4,0.256,775.5,01.15,0.508
2016-01-17 00:50:00,1661E-3,5C000400,-0724,0834,12092,027.9,045.4,0.256,775.5,01.15,0.508
2016-01-17 00:51:00,1758E-3,5C000400,-0724,0834,12307,028.0,045.4,0.256,775.5,01.15,0.508
2016-01-17 00:52:00,1896E-3,5C000400,-0724,0834,12226,027.9,045.4,0.256,775.5,01.15,0.508
2016-01-17 00:53:00,1761E-3,5C000400,-0724,0834,12270,027.9,045.4,0.256,775.5,01.15,0.508
2016-01-17 00:54:00,1752E-3,5C000400,-0724,0834,12068,027.9,045.4,0.256,775.5,01.15,0.508
2016-01-17 00:55:00,1798E-3,5C000400,-0724,0834,11929,027.9,045.4,0.256,775.5,01.15,0.508
2016-01-17 00:56:00,1740E-3,5C000400,-0724,0834,12208,027.9,045.4,0.256,775.5,01.15,0.508
2016-01-17 00:57:00,1747E-3,5C000400,-0724,0834,11998,028.0,045.4,0.256,775.5,01.15,0.508
2016-01-17 00:58:00,1895E-3,5C000400,-0724,0834,12118,028.0,045.4,0.256,775.5,01.15,0.508
2016-01-17 00:59:00,1754E-3,5C000400,-0724,0834,12245,027.9,045.4,0.256,775.5,01.15,0.508
2016-01-17 01:00:00,1872E-3,5C000400,-0724,0834,12137,028.0,045.4,0.256,775.5,01.15,0.508
2016-01-17 01:01:00,1821E-3,5C000400,-0724,0833,12074,027.9,045.4,0.256,775.5,01.15,0.508
2016-01-17 01:02:00,2077E-3,5C000400,-0724,0834,12149,027.9,045.4,0.256,775.6,01.15,0.508
2016-01-17 01:03:00,1803E-3,5C000400,-0724,0834,12027,027.9,045.4,0.256,775.5,01.15,0.508
2016-01-17 01:04:00,1825E-3,5C000400,-0724,0833,12216,027.9,045.4,0.256,775.5,01.15,0.508
2016-01-17 01:05:00,1702E-3,5C000400,-0724,0834,12126,027.9,045.4,0.256,775.5,01.15,0.508
2016-01-17 01:06:00,1927E-3,5C000400,-0724,0834,12177,027.9,045.4,0.256,775.6,01.15,0.508
2016-01-17 01:07:00,1774E-3,5C000400,-0724,0834,12080,027.9,045.4,0.256,775.6,01.15,0.508
2016-01-17 01:08:00,1875E-3,5C000400,-0724,0834,12173,027.9,045.4,0.256,775.6,01.15,0.508
2016-01-17 01:09:00,1794E-3,5C000400,-0724,0835,12105,027.9,045.4,0.256,775.6,01.15,0.508
2016-01-17 01:10:00,1823E-3,5C000400,-0724,0834,12238,027.9,045.4,0.256,775.6,01.15,0.508
2016-01-17 01:11:00,1820E-3,5C000400,-0724,0834,12103,027.9,045.4,0.256,775.6,01.15,0.508
2016-01-17 01:12:00,1698E-3,5C000400,-0724,0834,12220,027.9,045.4,0.256,775.6,01.15,0.508
2016-01-17 01:13:00,1857E-3,5C000400,-0724,0834,12167,027.9,045.4,0.256,775.6,01.15,0.508
2016-01-17 01:14:00,1831E-3,5C000400,-0724,0834,12086,027.9,045.4,0.256,775.6,01.15,0.508
2016-01-17 01:15:00,1780E-3,5C000400,-0724,0834,12170,027.9,045.4,0.257,775.6,01.15,0.508
2016-01-17 01:16:00,1875E-3,5C000400,-0724,0834,12224,027.9,045.4,0.256,775.6,01.15,0.508
2016-01-17 01:17:00,1752E-3,5C000400,-0724,0834,12105,027.9,045.4,0.256,775.6,01.15,0.508
2016-01-17 01:18:00,1816E-3,5C000400,-0724,0833,12202,027.9,045.4,0.256,775.6,01.15,0.508
2016-01-17 01:19:00,1722E-3,5C000400,-0724,0834,12255,027.9,045.4,0.256,775.6,01.15,0.508
2016-01-17 01:20:00,1872E-3,5C000400,-0724,0834,12075,027.9,045.4,0.256,775.6,01.15,0.508
2016-01-17 01:21:00,1847E-3,5C000400,-0724,0834,12286,027.9,045.4,0.256,775.6,01.15,0.508
2016-01-17 01:22:00,1770E-3,5C000400,-0724,0834,12183,027.9,045.4,0.256,775.6,01.15,0.508
2016-01-17 01:23:00,1753E-3,5C000400,-0724,0834,12211,027.9,045.4,0.256,775.6,01.15,0.508
2016-01-17 01:24:00,1709E-3,5C000400,-0724,0834,12103,027.9,045.4,0.256,775.6,01.15,0.508
2016-01-17 01:25:00,1744E-3,5C000400,-0724,0833,12203,027.9,045.5,0.256,775.6,01.15,0.508
2016-01-17 01:26:00,1857E-3,5C000400,-0724,0834,12158,027.9,045.4,0.256,775.6,01.15,0.508
2016-01-17 01:27:00,1793E-3,5C000400,-0724,0834,12050,027.9,045.4,0.256,775.6,01.15,0.508
2016-01-17 01:28:00,1764E-3,5C000400,-0724,0833,12012,027.9,045.4,0.256,775.7,01.15,0.508
2016-01-17 01:29:00,1819E-3,5C000400,-0724,0834,12220,027.9,045.4,0.256,775.6,01.15,0.508
2016-01-17 01:30:00,1839E-3,5C000400,-0724,0834,12030,027.9,045.4,0.256,775.7,01.15,0.508
2016-01-17 01:31:00,1770E-3,5C000400,-0724,0834,12188,027.9,045.4,0.256,775.7,01.15,0.508
2016-01-17 01:32:00,1779E-3,5C000400,-0724,0834,11980,027.9,045.4,0.256,775.6,01.15,0.508
2016-01-17 01:33:00,1711E-3,5C000400,-0724,0835,12194,027.9,045.4,0.256,775.6,01.15,0.508
2016-01-17 01:34:00,1846E-3,5C000400,-0724,0834,12218,027.9,045.4,0.257,775.6,01.15,0.508
2016-01-17 01:35:00,1856E-3,5C000400,-0724,0834,12101,027.9,045.4,0.256,775.6,01.15,0.508
2016-01-17 01:36:00,1761E-3,5C000400,-0724,0833,12288,027.9,045.4,0.256,775.6,01.15,0.508
2016-01-17 01:37:00,1725E-3,5C000400,-0724,0834,12011,027.9,045.4,0.256,775.6,01.15,0.508
2016-01-17 01:38:00,1802E-3,5C000400,-0724,0834,12122,027.9,045.4,0.256,775.6,01.15,0.508
2016-01-17 01:39:00,1826E-3,5C000400,-0724,0834,12219,027.9,045.4,0.256,775.6,01.15,0.508
2016-01-17 01:40:00,1708E-3,5C000400,-0724,0834,12217,027.9,045.4,0.256,775.6,01.15,0.508
2016-01-17 01:41:00,1854E-3,5C000400,-0724,0835,12272,027.9,045.4,0.257,775.6,01.15,0.508
2016-01-17 01:42:00,1879E-3,5C000400,-0724,0834,12279,027.9,045.4,0.257,775.6,01.15,0.508
2016-01-17 01:43:00,1783E-3,5C000400,-0724,0834,12161,027.9,045.4,0.257,775.6,01.15,0.508
2016-01-17 01:44:00,1723E-3,5C000400,-0724,0834,12085,027.9,045.4,0.257,775.6,01.15,0.508
2016-01-17 01:45:00,1746E-3,5C000400,-0724,0834,12008,027.9,045.4,0.256,775.6,01.15,0.508
2016-01-17 01:46:00,1922E-3,5C000400,-0724,0834,12198,027.9,045.4,0.256,775.6,01.15,0.508
2016-01-17 01:47:00,1927E-3,5C000400,-0724,0834,12106,027.9,045.4,0.256,775.6,01.15,0.508
2016-01-17 01:48:00,1881E-3,5C000400,-0724,0834,12207,027.9,045.4,0.256,775.6,01.15,0.508
2016-01-17 01:49:00,1857E-3,5C000400,-0724,0833,12227,027.9,045.4,0.256,775.6,01.15,0.508
2016-01-17 01:50:00,1908E-3,5C000400,-0724,0834,12179,027.9,045.4,0.256,775.6,01.15,0.508
2016-01-17 01:51:00,1814E-3,5C000400,-0724,0834,12123,027.9,045.4,0.256,775.6,01.15,0.508
2016-01-17 01:52:00,1784E-3,5C000400,-0724,0834,12227,027.9,045.4,0.256,775.6,01.15,0.508
2016-01-17 01:53:00,1810E-3,5C000400,-0724,0834,11942,027.9,045.4,0.257,775.6,01.15,0.508
2016-01-17 01:54:00,1778E-3,5C000400,-0724,0834,12235,027.9,045.4,0.257,775.6,01.15,0.508
2016-01-17 01:55:00,1723E-3,5C000400,-0724,0834,12268,027.9,045.4,0.257,775.6,01.15,0.508
2016-01-17 01:56:00,1735E-3,5C000400,-0724,0834,12212,027.9,045.4,0.256,775.6,01.15,0.508
2016-01-17 01:57:00,1937E-3,5C000400,-0724,0834,12114,027.9,045.4,0.256,775.6,01.15,0.508
2016-01-17 01:58:00,1938E-3,5C000400,-0724,0834,12052,027.9,045.4,0.256,775.6,01.15,0.508
2016-01-17 01:59:00,1813E-3,5C000400,-0724,0834,12247,027.9,045.4,0.256,775.7,01.15,0.508
2016-01-17 02:00:00,1916E-3,5C000400,-0724,0833,12160,027.9,045.4,0.256,775.6,01.15,0.508
2016-01-17 02:01:00,1800E-3,5C000400,-0724,0833,12122,027.9,045.4,0.256,775.6,01.15,0.508
2016-01-17 02:02:00,1710E-3,5C000400,-0724,0834,12273,027.9,045.4,0.256,775.6,01.15,0.508
2016-01-17 02:03:00,1815E-3,5C000400,-0724,0834,12123,027.9,045.4,0.256,775.6,01.15,0.508
2016-01-17 02:04:00,1773E-3,5C000400,-0724,0833,12117,027.9,045.4,0.256,775.6,01.15,0.508
2016-01-17 02:05:00,1939E-3,5C000400,-0724,0835,12256,027.9,045.4,0.256,775.7,01.15,0.508
2016-01-17 02:06:00,1897E-3,5C000400,-0724,0834,12319,027.9,045.4,0.256,775.6,01.15,0.508
2016-01-17 02:07:00,1880E-3,5C000400,-0724,0834,12060,027.9,045.4,0.256,775.6,01.15,0.508
2016-01-17 02:08:00,1845E-3,5C000400,-0724,0834,12169,027.9,045.4,0.257,775.6,01.15,0.508
2016-01-17 02:09:00,1921E-3,5C000400,-0724,0834,12215,027.9,045.4,0.257,775.6,01.15,0.508
2016-01-17 02:10:00,1916E-3,5C000400,-0724,0834,12217,027.8,045.4,0.257,775.6,01.15,0.508
2016-01-17 02:11:00,1842E-3,5C000400,-0724,0834,12040,027.8,045.4,0.257,775.6,01.15,0.508
2016-01-17 02:12:00,1939E-3,5C000400,-0724,0834,12072,027.9,045.4,0.256,775.6,01.15,0.508
2016-01-17 02:13:00,1874E-3,5C000400,-0724,0833,12139,027.8,045.4,0.256,775.6,01.15,0.508
2016-01-17 02:14:00,1774E-3,5C000400,-0724,0835,12164,027.9,045.4,0.256,775.6,01.15,0.508
2016-01-17 02:15:00,1857E-3,5C000400,-0724,0834,12083,027.9,045.4,0.256,775.6,01.15,0.508
2016-01-17 02:16:00,1864E-3,5C000400,-0724,0834,12101,027.8,045.4,0.256,775.6,01.15,0.508
2016-01-17 02:17:00,1734E-3,5C000400,-0724,0834,12112,027.9,045.4,0.256,775.6,01.15,0.508
2016-01-17 02:18:00,1875E-3,5C000400,-0724,0834,12224,027.9,045.4,0.256,775.6,01.15,0.508
2016-01-17 02:19:00,1807E-3,5C000400,-0724,0835,12118,027.9,045.4,0.256,775.6,01.15,0.508
2016-01-17 02:20:00,1752E-3,5C000400,-0724,0834,12191,027.8,045.4,0.256,775.6,01.15,0.508
2016-01-17 02:21:00,1885E-3,5C000400,-0724,0834,12095,027.9,045.4,0.256,775.6,01.15,0.508
2016-01-17 02:22:00,1964E-3,5C000400,-0724,0834,12155,027.9,045.4,0.257,775.5,01.15,0.508
2016-01-17 02:23:00,1788E-3,5C000400,-0724,0834,12148,027.9,045.4,0.257,775.5,01.15,0.508
2016-01-17 02:24:00,1830E-3,5C000400,-0724,0834,12200,027.9,045.4,0.257,775.5,01.15,0.508
2016-01-17 02:25:00,1733E-3,5C000400,-0724,0833,12120,027.9,045.4,0.256,775.6,01.15,0.508
2016-01-17 02:26:00,1823E-3,5C000400,-0724,0833,12258,027.9,045.4,0.256,775.5,01.15,0.508
2016-01-17 02:27:00,1731E-3,5C000400,-0724,0834,12089,027.9,045.4,0.256,775.5,01.15,0.508
2016-01-17 02:28:00,1697E-3,5C000400,-0724,0834,12082,027.9,045.4,0.256,775.5,01.15,0.508
2016-01-17 02:29:00,1800E-3,5C000400,-0724,0834,11987,027.8,045.4,0.256,775.5,01.15,0.508
2016-01-17 02:30:00,1863E-3,5C000400,-0724,0834,12103,027.8,045.4,0.256,775.5,01.15,0.508
2016-01-17 02:31:00,1804E-3,5C000400,-0724,0834,12105,027.9,045.4,0.256,775.5,01.15,0.508
2016-01-17 02:32:00,1856E-3,5C000400,-0724,0833,12262,027.9,045.4,0.256,775.5,01.15,0.508
2016-01-17 02:33:00,1775E-3,5C000400,-0724,0834,12073,027.9,045.4,0.256,775.5,01.15,0.508
2016-01-17 02:34:00,1922E-3,5C000400,-0724,0834,12055,027.9,045.4,0.257,775.5,01.15,0.508
2016-01-17 02:35:00,1718E-3,5C000400,-0724,0834,12001,027.8,045.4,0.257,775.5,01.15,0.508
2016-01-17 02:36:00,1784E-3,5C000400,-0724,0834,12128,027.8,045.4,0.256,775.4,01.15,0.508
2016-01-17 02:37:00,1837E-3,5C000400,-0724,0834,12122,027.8,045.4,0.256,775.4,01.15,0.508
2016-01-17 02:38:00,1797E-3,5C000400,-0724,0834,12137,027.9,045.4,0.256,775.5,01.15,0.508
2016-01-17 02:39:00,1842E-3,5C000400,-0724,0834,12081,027.8,045.4,0.256,775.4,01.15,0.508
2016-01-17 02:40:00,1902E-3,5C000400,-0724,0834,12025,027.9,045.4,0.256,775.5,01.15,0.508
2016-01-17 02:41:00,1818E-3,5C000400,-0724,0833,12111,027.9,045.4,0.257,775.4,01.15,0.508
2016-01-17 02:42:00,1794E-3,5C000400,-0724,0834,12234,027.9,045.4,0.257,775.4,01.15,0.508
2016-01-17 02:43:00,1726E-3,5C000400,-0724,0834,12001,027.9,045.4,0.257,775.4,01.15,0.508
2016-01-17 02:44:00,1805E-3,5C000400,-0724,0834,12140,027.9,045.4,0.257,775.4,01.15,0.508
2016-01-17 02:45:00,1731E-3,5C000400,-0724,0834,12241,027.9,045.4,0.257,775.4,01.15,0.508
2016-01-17 02:46:00,1729E-3,5C000400,-0724,0834,12161,027.9,045.4,0.257,775.4,01.15,0.508
2016-01-17 02:47:00,1875E-3,5C000400,-0724,0834,12116,027.9,045.4,0.256,775.4,01.15,0.508
2016-01-17 02:48:00,1681E-3,5C000400,-0724,0833,12204,027.8,045.4,0.256,775.4,01.15,0.508
2016-01-17 02:49:00,1827E-3,5C000400,-0724,0834,12093,027.9,045.4,0.256,775.4,01.15,0.508
2016-01-17 02:50:00,1710E-3,5C000400,-0724,0833,12261,027.8,045.4,0.256,775.4,01.15,0.508
2016-01-17 02:51:00,1763E-3,5C000400,-0724,0835,12266,027.8,045.4,0.256,775.4,01.15,0.508
2016-01-17 02:52:00,1819E-3,5C000400,-0724,0833,12181,027.9,045.4,0.256,775.4,01.15,0.508
2016-01-17 02:53:00,1935E-3,5C000400,-0724,0835,12219,027.9,045.4,0.257,775.4,01.15,0.508
2016-01-17 02:54:00,1851E-3,5C000400,-0724,0834,12147,027.9,045.4,0.257,775.4,01.15,0.508
2016-01-17 02:55:00,1949E-3,5C000400,-0724,0833,12196,027.9,045.4,0.256,775.4,01.15,0.508
2016-01-17 02:56:00,1852E-3,5C000400,-0724,0833,12188,027.9,045.4,0.256,775.4,01.15,0.508
2016-01-17 02:57:00,1893E-3,5C000400,-0724,0834,12256,027.9,045.4,0.256,775.4,01.15,0.508
2016-01-17 02:58:00,1878E-3,5C000400,-0724,0833,12097,027.9,045.4,0.256,775.4,01.15,0.508
2016-01-17 02:59:00,1802E-3,5C000400,-0724,0835,12202,027.9,045.4,0.256,775.3,01.15,0.508
2016-01-17 03:00:00,1885E-3,5C000400,-0724,0834,12132,027.9,045.4,0.256,775.3,01.15,0.508
2016-01-17 03:01:00,1749E-3,5C000400,-0724,0834,12013,027.8,045.4,0.257,775.3,01.15,0.508
2016-01-17 03:02:00,1742E-3,5C000400,-0724,0833,12036,027.8,045.4,0.257,775.3,01.15,0.508
2016-01-17 03:03:00,1699E-3,5C000400,-0724,0834,12178,027.8,045.4,0.256,775.3,01.15,0.508
2016-01-17 03:04:00,1645E-3,5C000400,-0724,0833,12109,027.8,045.4,0.256,775.3,01.15,0.508
2016-01-17 03:05:00,1820E-3,5C000400,-0724,0834,12139,027.9,045.4,0.256,775.3,01.15,0.508
2016-01-17 03:06:00,1841E-3,5C000400,-0724,0834,12214,027.8,045.4,0.256,775.3,01.15,0.508
2016-01-17 03:07:00,1796E-3,5C000400,-0724,0835,12306,027.9,045.4,0.256,775.3,01.15,0.508
2016-01-17 03:08:00,1695E-3,5C000400,-0724,0833,12082,027.9,045.4,0.257,775.3,01.15,0.508
2016-01-17 03:09:00,1855E-3,5C000400,-0724,0834,12181,027.8,045.4,0.257,775.3,01.15,0.508
2016-01-17 03:10:00,1734E-3,5C000400,-0724,0834,12105,027.9,045.4,0.257,775.3,01.15,0.508
2016-01-17 03:11:00,1899E-3,5C000400,-0724,0835,12154,027.9,045.4,0.256,775.3,01.15,0.508
2016-01-17 03:12:00,1932E-3,5C000400,-0724,0833,12235,027.9,045.4,0.256,775.3,01.15,0.508
2016-01-17 03:13:00,1712E-3,5C000400,-0724,0834,12137,027.9,045.4,0.256,775.3,01.15,0.508
2016-01-17 03:14:00,1724E-3,5C000400,-0724,0834,12189,027.9,045.4,0.256,775.3,01.15,0.508
2016-01-17 03:15:00,1829E-3,5C000400,-0724,0834,12188,027.9,045.4,0.256,775.2,01.15,0.508
2016-01-17 03:16:00,1890E-3,5C000400,-0724,0834,12150,027.9,045.4,0.257,775.2,01.15,0.508
2016-01-17 03:17:00,1817E-3,5C000400,-0724,0834,12216,027.9,045.4,0.256,775.2,01.15,0.508
2016-01-17 03:18:00,1795E-3,5C000400,-0724,0834,12240,027.9,045.4,0.256,775.2,01.15,0.508
2016-01-17 03:19:00,1792E-3,5C000400,-0724,0834,12162,027.8,045.4,0.256,775.2,01.15,0.508
2016-01-17 03:20:00,1700E-3,5C000400,-0724,0834,12280,027.8,045.4,0.256,775.2,01.15,0.508
2016-01-17 03:21:00,1891E-3,5C000400,-0724,0834,12129,027.9,045.4,0.256,775.2,01.15,0.508
2016-01-17 03:22:00,1696E-3,5C000400,-0724,0834,12151,027.9,045.4,0.257,775.3,01.15,0.508
2016-01-17 03:23:00,1893E-3,5C000400,-0724,0835,12029,027.9,045.4,0.256,775.2,01.15,0.508
2016-01-17 03:24:00,1826E-3,5C000400,-0724,0834,12239,027.9,045.4,0.256,775.2,01.15,0.508
2016-01-17 03:25:00,1815E-3,5C000400,-0724,0835,12148,027.9,045.4,0.256,775.2,01.15,0.508
2016-01-17 03:26:00,1649E-3,5C000400,-0724,0837,12256,027.9,045.4,0.256,775.2,01.15,0.508
2016-01-17 03:27:00,1796E-3,5C000400,-0724,0835,12564,027.9,045.4,0.256,775.2,01.15,0.508
2016-01-17 03:28:00,1765E-3,5C000400,-0724,0836,11018,027.9,045.4,0.256,775.2,01.15,0.508
2016-01-17 03:29:00,1807E-3,5C000400,-0724,0834,12201,027.9,045.4,0.257,775.2,01.15,0.508
2016-01-17 03:30:00,1754E-3,5C000400,-0724,0834,12055,027.8,045.4,0.256,775.2,01.15,0.508
2016-01-17 03:31:00,1832E-3,5C000400,-0724,0834,12169,027.8,045.4,0.256,775.1,01.15,0.508
2016-01-17 03:32:00,1905E-3,5C000400,-0724,0835,12218,027.9,045.4,0.256,775.1,01.15,0.508
2016-01-17 03:33:00,1692E-3,5C000400,-0724,0834,12192,027.9,045.4,0.256,775.1,01.15,0.508
2016-01-17 03:34:00,1845E-3,5C000400,-0724,0834,12132,027.9,045.4,0.256,775.1,01.15,0.508
2016-01-17 03:35:00,1811E-3,5C000400,-0724,0834,12183,027.9,045.4,0.257,775.1,01.15,0.508
2016-01-17 03:36:00,1678E-3,5C000400,-0724,0834,12058,027.9,045.4,0.256,775.1,01.15,0.508
2016-01-17 03:37:00,1878E-3,5C000400,-0724,0835,12226,027.8,045.4,0.256,775.1,01.15,0.508
2016-01-17 03:38:00,1877E-3,5C000400,-0724,0835,12080,027.9,045.4,0.256,775.2,01.15,0.508
2016-01-17 03:39:00,1880E-3,5C000400,-0724,0834,12269,027.9,045.4,0.256,775.2,01.15,0.508
2016-01-17 03:40:00,1697E-3,5C000400,-0724,0833,12183,027.8,045.4,0.256,775.1,01.15,0.508
2016-01-17 03:41:00,1759E-3,5C000400,-0724,0835,12160,027.9,045.4,0.257,775.1,01.15,0.508
2016-01-17 03:42:00,1757E-3,5C000400,-0724,0834,11971,027.9,045.4,0.257,775.1,01.15,0.508
2016-01-17 03:43:00,1844E-3,5C000400,-0724,0835,12174,027.9,045.4,0.257,775.1,01.15,0.508
2016-01-17 03:44:00,1792E-3,5C000400,-0724,0835,12143,027.9,045.4,0.257,775.1,01.15,0.508
2016-01-17 03:45:00,1901E-3,5C000400,-0724,0834,12105,027.9,045.4,0.256,775.1,01.15,0.508
2016-01-17 03:46:00,1859E-3,5C000400,-0724,0834,12217,027.9,045.4,0.256,775.1,01.15,0.508
2016-01-17 03:47:00,1746E-3,5C000400,-0724,0834,12086,027.9,045.4,0.256,775.1,01.15,0.508
2016-01-17 03:48:00,1825E-3,5C000400,-0724,0835,12201,027.9,045.4,0.257,775.1,01.15,0.508
2016-01-17 03:49:00,1822E-3,5C000400,-0724,0835,12210,027.8,045.4,0.256,775.1,01.15,0.508
2016-01-17 03:50:00,1782E-3,5C000400,-0724,0834,12276,027.9,045.4,0.256,775.2,01.15,0.508
2016-01-17 03:51:00,1795E-3,5C000400,-0724,0835,12137,027.9,045.4,0.256,775.2,01.15,0.508
2016-01-17 03:52:00,1741E-3,5C000400,-0724,0834,12083,027.9,045.4,0.256,775.2,01.15,0.508
2016-01-17 03:53:00,1800E-3,5C000400,-0724,0834,12055,027.9,045.4,0.256,775.2,01.15,0.508
2016-01-17 03:54:00,1826E-3,5C000400,-0724,0834,12231,027.9,045.4,0.257,775.2,01.15,0.508
2016-01-17 03:55:00,1788E-3,5C000400,-0724,0835,12211,027.9,045.4,0.256,775.2,01.15,0.508
2016-01-17 03:56:00,1842E-3,5C000400,-0724,0834,12192,027.9,045.4,0.256,775.2,01.15,0.508
2016-01-17 03:57:00,1781E-3,5C000400,-0724,0834,12167,027.9,045.4,0.256,775.2,01.15,0.508
2016-01-17 03:58:00,1831E-3,5C000400,-0724,0834,12132,027.9,045.4,0.256,775.2,01.15,0.508
2016-01-17 03:59:00,1737E-3,5C000400,-0724,0833,12113,027.9,045.4,0.256,775.1,01.15,0.508
2016-01-17 04:00:00,1732E-3,5C000400,-0724,0835,12256,027.9,045.4,0.256,775.2,01.15,0.508
2016-01-17 04:01:00,2004E-3,5C000400,-0724,0834,12172,027.9,045.4,0.256,775.1,01.15,0.508
2016-01-17 04:02:00,1897E-3,5C000400,-0724,0834,12258,027.9,045.4,0.256,775.2,01.15,0.508
2016-01-17 04:03:00,1761E-3,5C000400,-0724,0834,12210,027.9,045.4,0.256,775.1,01.15,0.508
2016-01-17 04:04:00,1708E-3,5C000400,-0724,0834,12192,027.9,045.4,0.256,775.2,01.15,0.508
2016-01-17 04:05:00,1835E-3,5C000400,-0724,0834,12342,027.9,045.4,0.257,775.2,01.15,0.508
2016-01-17 04:06:00,1800E-3,5C000400,-0724,0834,12253,027.9,045.4,0.256,775.1,01.15,0.508
2016-01-17 04:07:00,1892E-3,5C000400,-0724,0834,12171,027.9,045.4,0.256,775.1,01.15,0.508
2016-01-17 04:08:00,1744E-3,5C000400,-0724,0834,12054,027.9,045.4,0.256,775.1,01.15,0.508
2016-01-17 04:09:00,1785E-3,5C000400,-0724,0834,12196,027.9,045.4,0.256,775.1,01.15,0.508
2016-01-17 04:10:00,1699E-3,5C000400,-0724,0834,12200,027.9,045.4,0.256,775.1,01.15,0.508
2016-01-17 04:11:00,1710E-3,5C000400,-0724,0834,12208,027.9,045.4,0.256,775.1,01.15,0.508
2016-01-17 04:12:00,1687E-3,5C000400,-0724,0834,12228,027.9,045.4,0.256,775.1,01.15,0.508
2016-01-17 04:13:00,1790E-3,5C000400,-0724,0834,12262,027.9,045.4,0.256,775.0,01.15,0.508
2016-01-17 04:14:00,1740E-3,5C000400,-0724,0834,12086,027.9,045.5,0.256,775.0,01.15,0.508
2016-01-17 04:15:00,1845E-3,5C000400,-0724,0833,12232,027.9,045.4,0.256,775.0,01.15,0.508
2016-01-17 04:16:00,1773E-3,5C000400,-0724,0834,12184,027.9,045.4,0.257,775.0,01.15,0.508
2016-01-17 04:17:00,1790E-3,5C000400,-0724,0834,12104,027.9,045.4,0.256,775.0,01.15,0.508
2016-01-17 04:18:00,1672E-3,5C000400,-0724,0834,12071,027.9,045.4,0.256,775.0,01.15,0.508
2016-01-17 04:19:00,1656E-3,5C000400,-0724,0834,12155,027.9,045.4,0.256,775.0,01.15,0.508
2016-01-17 04:20:00,1754E-3,5C000400,-0724,0834,12186,027.9,045.4,0.256,775.0,01.15,0.508